When you browse on this site, cookies collect data to enhance your experience and personalize the content and advertising you see.
Visit our Privacy Policy to learn more. By continuing to use the site, you agree to this use of cookies and data.
  • In Lithuania
  • List of Countries
  • For 7 days
  • Water Temperature
  • Satellite Maps
  • Weather Map
  • Weather Widgets
  • user-avatar
    Login

    Hourly Weather Medvedev

    Today, 24 May, Friday

    Time Temperature Precipitation Wind Pressure Humidity
    00:00 +15°C° 0 mm 2 mps 733 mmHg 89%
    01:00 +15°C° 0 mm 2 mps 733 mmHg 91%
    02:00 +14°C° 0 mm 2 mps 733 mmHg 93%
    03:00 +14°C° 0 mm 2 mps 733 mmHg 95%
    04:00 +13°C° 0 mm 3 mps 734 mmHg 95%
    05:00 +13°C° 0 mm 3 mps 734 mmHg 95%
    06:00 +13°C° 0 mm 4 mps 735 mmHg 95%
    07:00 +13°C° 0 mm 4 mps 735 mmHg 93%
    08:00 +13°C° 0 mm 4 mps 736 mmHg 91%
    09:00 +13°C° 0 mm 4 mps 736 mmHg 89%
    10:00 +14°C° 0 mm 4 mps 736 mmHg 88%
    11:00 +14°C° 0 mm 4 mps 737 mmHg 86%
    12:00 +14°C° 0 mm 4 mps 737 mmHg 84%
    13:00 +15°C° 0 mm 4 mps 737 mmHg 82%
    14:00 +15°C° 0 mm 4 mps 737 mmHg 79%
    15:00 +17°C° 0 mm 4 mps 737 mmHg 77%
    16:00 +17°C° 0 mm 4 mps 737 mmHg 77%
    17:00 +15°C° 0 mm 4 mps 738 mmHg 77%
    18:00 +15°C° 0 mm 4 mps 738 mmHg 77%
    19:00 +16°C° 0 mm 3 mps 738 mmHg 78%
    20:00 +14°C° 0 mm 3 mps 738 mmHg 80%
    21:00 +13°C° 0 mm 3 mps 738 mmHg 81%
    22:00 +13°C° 0 mm 3 mps 738 mmHg 83%
    23:00 +12°C° 0 mm 3 mps 738 mmHg 85%

    Tomorrow, 25 May, Saturday

    Time Temperature Precipitation Wind Pressure Humidity
    00:00 +11°C° 0 mm 3 mps 738 mmHg 88%
    01:00 +11°C° 0 mm 4 mps 738 mmHg 87%
    02:00 +11°C° 0 mm 4 mps 738 mmHg 87%
    03:00 +11°C° 0 mm 4 mps 738 mmHg 87%
    04:00 +9°C° 0 mm 5 mps 738 mmHg 87%
    05:00 +9°C° 0 mm 5 mps 737 mmHg 87%
    06:00 +9°C° 0 mm 5 mps 737 mmHg 87%
    07:00 +10°C° 0 mm 5 mps 737 mmHg 86%
    08:00 +12°C° 0 mm 5 mps 737 mmHg 84%
    09:00 +14°C° 0 mm 6 mps 737 mmHg 83%
    10:00 +14°C° 0 mm 6 mps 737 mmHg 83%
    11:00 +15°C° 0 mm 6 mps 736 mmHg 82%
    12:00 +15°C° 0 mm 6 mps 736 mmHg 82%
    13:00 +15°C° 0.1 mm 6 mps 736 mmHg 83%
    14:00 +15°C° 0.1 mm 5 mps 735 mmHg 83%
    15:00 +16°C° 0.1 mm 5 mps 735 mmHg 84%
    16:00 +16°C° 0 mm 5 mps 734 mmHg 84%
    17:00 +17°C° 0 mm 5 mps 734 mmHg 84%
    18:00 +17°C° 0 mm 5 mps 734 mmHg 84%
    19:00 +17°C° 0.1 mm 4 mps 733 mmHg 87%
    20:00 +15°C° 0.1 mm 4 mps 733 mmHg 91%
    21:00 +16°C° 0.1 mm 3 mps 733 mmHg 94%
    22:00 +14°C° 1.8 mm 3 mps 732 mmHg 95%
    23:00 +14°C° 1.8 mm 4 mps 732 mmHg 95%

    Day after tomorrow, 26 May, Sunday

    Time Temperature Precipitation Wind Pressure Humidity
    00:00 +14°C° 1.8 mm 4 mps 732 mmHg 96%
    01:00 +13°C° 0.2 mm 4 mps 732 mmHg 96%
    02:00 +13°C° 0.2 mm 3 mps 732 mmHg 96%
    03:00 +13°C° 0.2 mm 3 mps 731 mmHg 96%
    04:00 +13°C° 0 mm 3 mps 732 mmHg 95%
    05:00 +13°C° 0 mm 3 mps 732 mmHg 95%
    06:00 +13°C° 0 mm 3 mps 732 mmHg 94%
    07:00 +16°C° 0 mm 2 mps 732 mmHg 90%
    08:00 +17°C° 0 mm 2 mps 732 mmHg 86%
    09:00 +19°C° 0 mm 2 mps 732 mmHg 81%
    10:00 +20°C° 0.4 mm 2 mps 732 mmHg 77%
    11:00 +22°C° 0.4 mm 1 mps 732 mmHg 73%
    12:00 +23°C° 0.4 mm 1 mps 732 mmHg 69%
    13:00 +23°C° 1.3 mm 2 mps 731 mmHg 70%
    14:00 +23°C° 1.3 mm 2 mps 731 mmHg 71%
    15:00 +21°C° 1.3 mm 2 mps 731 mmHg 71%
    16:00 +21°C° 1.3 mm 2 mps 731 mmHg 75%
    17:00 +21°C° 1.3 mm 2 mps 731 mmHg 78%
    18:00 +20°C° 1.3 mm 2 mps 731 mmHg 82%
    19:00 +19°C° 0.1 mm 2 mps 732 mmHg 83%
    20:00 +18°C° 0.1 mm 3 mps 732 mmHg 85%
    21:00 +17°C° 0.1 mm 3 mps 732 mmHg 87%
    22:00 +16°C° 0 mm 3 mps 732 mmHg 87%
    23:00 +14°C° 0 mm 4 mps 732 mmHg 87%

    27 May, Monday

    Time Temperature Precipitation Wind Pressure Humidity
    00:00 +13°C° 0 mm 4 mps 733 mmHg 88%
    01:00 +13°C° 0 mm 4 mps 733 mmHg 89%
    02:00 +12°C° 0 mm 4 mps 733 mmHg 90%
    03:00 +11°C° 0 mm 4 mps 734 mmHg 91%
    04:00 +11°C° 0 mm 4 mps 734 mmHg 90%
    05:00 +12°C° 0 mm 4 mps 734 mmHg 89%
    06:00 +12°C° 0 mm 4 mps 735 mmHg 88%
    07:00 +13°C° 0 mm 5 mps 735 mmHg 83%
    08:00 +15°C° 0 mm 5 mps 736 mmHg 78%
    09:00 +16°C° 0 mm 5 mps 736 mmHg 73%
    10:00 +17°C° 0 mm 6 mps 736 mmHg 70%
    11:00 +19°C° 0 mm 6 mps 737 mmHg 67%
    12:00 +20°C° 0 mm 6 mps 737 mmHg 64%
    13:00 +20°C° 0.1 mm 6 mps 737 mmHg 63%
    14:00 +20°C° 0.1 mm 6 mps 738 mmHg 62%
    15:00 +21°C° 0.1 mm 6 mps 738 mmHg 61%
    16:00 +20°C° 0.1 mm 5 mps 738 mmHg 65%
    17:00 +20°C° 0.1 mm 4 mps 738 mmHg 70%
    18:00 +19°C° 0.1 mm 3 mps 738 mmHg 74%
    19:00 +18°C° 0 mm 3 mps 739 mmHg 78%
    20:00 +17°C° 0 mm 3 mps 739 mmHg 82%
    21:00 +16°C° 0 mm 2 mps 739 mmHg 86%
    22:00 +15°C° 0 mm 2 mps 739 mmHg 87%
    23:00 +14°C° 0 mm 3 mps 739 mmHg 88%

    28 May, Tuesday

    Time Temperature Precipitation Wind Pressure Humidity
    00:00 +14°C° 0 mm 3 mps 740 mmHg 89%
    01:00 +13°C° 0 mm 3 mps 740 mmHg 91%
    02:00 +13°C° 0 mm 3 mps 740 mmHg 92%
    03:00 +13°C° 0 mm 3 mps 740 mmHg 94%
    04:00 +14°C° 0 mm 3 mps 740 mmHg 93%
    05:00 +14°C° 0 mm 3 mps 741 mmHg 93%
    06:00 +16°C° 0 mm 3 mps 741 mmHg 92%
    07:00 +17°C° 0 mm 3 mps 741 mmHg 88%
    08:00 +19°C° 0 mm 4 mps 741 mmHg 83%
    09:00 +21°C° 0 mm 4 mps 741 mmHg 79%
    10:00 +22°C° 0.1 mm 5 mps 741 mmHg 75%
    11:00 +23°C° 0.1 mm 5 mps 741 mmHg 71%
    12:00 +25°C° 0.1 mm 5 mps 741 mmHg 67%
    13:00 +26°C° 0.3 mm 5 mps 741 mmHg 67%
    14:00 +26°C° 0.3 mm 5 mps 741 mmHg 67%
    15:00 +26°C° 0.3 mm 5 mps 741 mmHg 66%
    16:00 +26°C° 0.2 mm 5 mps 741 mmHg 69%
    17:00 +26°C° 0.2 mm 4 mps 741 mmHg 72%
    18:00 +25°C° 0.2 mm 3 mps 741 mmHg 75%
    19:00 +24°C° 0 mm 3 mps 741 mmHg 80%
    20:00 +21°C° 0 mm 3 mps 741 mmHg 84%
    21:00 +20°C° 0 mm 3 mps 741 mmHg 88%
    22:00 +19°C° 0 mm 3 mps 741 mmHg 88%
    23:00 +19°C° 0 mm 3 mps 742 mmHg 89%

    29 May, Wednesday

    Time Temperature Precipitation Wind Pressure Humidity
    00:00 +18°C° 0 mm 3 mps 742 mmHg 90%
    01:00 +18°C° 0 mm 3 mps 742 mmHg 91%
    02:00 +18°C° 0 mm 3 mps 742 mmHg 92%
    03:00 +17°C° 0 mm 3 mps 742 mmHg 93%
    04:00 +18°C° 0 mm 3 mps 742 mmHg 91%
    05:00 +18°C° 0 mm 3 mps 742 mmHg 90%
    06:00 +19°C° 0 mm 4 mps 742 mmHg 89%
    07:00 +20°C° 0 mm 4 mps 742 mmHg 84%
    08:00 +22°C° 0 mm 5 mps 742 mmHg 79%
    09:00 +23°C° 0 mm 5 mps 742 mmHg 73%
    10:00 +24°C° 0 mm 6 mps 742 mmHg 70%
    11:00 +26°C° 0 mm 6 mps 742 mmHg 66%
    12:00 +27°C° 0 mm 7 mps 742 mmHg 63%
    13:00 +27°C° 0 mm 6 mps 742 mmHg 63%
    14:00 +27°C° 0 mm 6 mps 742 mmHg 63%
    15:00 +28°C° 0 mm 6 mps 742 mmHg 63%
    16:00 +27°C° 0 mm 6 mps 741 mmHg 66%
    17:00 +27°C° 0 mm 5 mps 741 mmHg 70%
    18:00 +27°C° 0 mm 4 mps 741 mmHg 73%
    19:00 +25°C° 0 mm 4 mps 741 mmHg 77%
    20:00 +23°C° 0 mm 4 mps 741 mmHg 81%
    21:00 +21°C° 0 mm 4 mps 741 mmHg 86%
    22:00 +21°C° 0 mm 4 mps 741 mmHg 86%
    23:00 +21°C° 0 mm 4 mps 741 mmHg 87%
    Show more